Location: Caltech
(34.1382°N, 118.1253°W)
Time: 21:19:41
(UTC-08:00)

FENGYUN 3A - Visible Passes

Search period start: 27 February 2015 00:00
Search period end: 09 March 2015 01:00
Orbit: 820 x 834 km, 98.5° (Epoch: 27 February)

Date Brightness Start Highest point End Pass type
(mag) Time Alt. Az. Time Alt. Az. Time Alt. Az.
27 Feb 5.6 19:35:38 15° NNE 19:35:38 15° NNE 19:36:46 10° NNE visible
27 Feb 6.4 21:17:08 12° NNW 21:17:08 12° NNW 21:17:33 10° NNW visible
28 Feb 5.7 19:16:30 12° NE 19:16:30 12° NE 19:17:08 10° NNE visible
28 Feb 6.0 20:57:59 16° NNW 20:57:59 16° NNW 20:59:03 10° NNW visible
01 Mar 5.7 20:38:50 20° NNW 20:38:50 20° NNW 20:40:22 10° NNW visible
02 Mar 5.4 20:19:41 22° N 20:19:41 22° N 20:21:32 10° N visible
03 Mar 5.3 20:00:33 22° NNE 20:00:33 22° NNE 20:02:32 10° N visible
04 Mar 5.3 19:41:24 19° NNE 19:41:24 19° NNE 19:43:21 10° NNE visible
04 Mar 6.3 21:22:54 14° NW 21:22:54 14° NW 21:23:46 10° NW visible
05 Mar 5.4 19:22:16 15° NE 19:22:16 15° NE 19:23:53 10° NNE visible
05 Mar 5.9 21:03:45 19° NNW 21:03:45 19° NNW 21:05:20 10° NNW visible
06 Mar 5.6 19:03:07 11° NE 19:03:07 11° NE 19:03:44 10° NE visible
06 Mar 5.5 20:44:37 24° NNW 20:44:37 24° NNW 20:46:43 10° NNW visible
07 Mar 5.1 20:25:28 28° N 20:25:28 28° N 20:27:56 10° N visible
08 Mar 5.0 21:06:20 28° NNE 21:06:20 28° NNE 21:09:00 10° N visible
08 Mar 6.6 22:47:50 10° NW 22:47:50 10° NW 22:47:54 10° NW visible
